Location: Sternwarte-Kraichtal
(49.1689°N, 8.6996°E)
Time: 00:55:23
(UTC+01:00)

X-37B - Visible Passes

Search period start: 21 January 2022 00:00
Search period end: 31 January 2022 00:00
Orbit: 334 x 337 km, 45.0° (Epoch: 11 January)

Date Brightness Start Highest point End Pass type
(mag) Time Alt. Az. Time Alt. Az. Time Alt. Az.
28 Jan 2.4 18:57:41 10° SSW 18:59:29 17° SSE 18:59:29 17° SSE visible
29 Jan 2.2 19:17:24 10° SW 19:19:08 23° SSW 19:19:08 23° SSW visible
30 Jan 2.5 18:03:08 10° SSW 18:05:05 17° SSE 18:07:04 10° ESE visible
30 Jan 2.7 19:37:31 10° WSW 19:38:45 21° SW 19:38:45 21° SW visible
